Wind_Speed
21 20 18 16 15 13 12 10 8 6 4 2 1 3 5 6 8 9 10 12 13 15 15 16 16 17 16 17 17 16 15 13 12 11 10 10 9 9 8 8 8 6 5 5
23 21 19 19 17 16 15 13 11 10 8 6 4 3 3 5 6 7 8 10 11 13 13 14 15 16 16 16 16 16 15 14 13 11 10 10 9 9 8 7 7 6 5 4
24 23 22 21 20 18 17 15 13 12 12 11 9 6 5 5 5 5 7 8 10 11 12 13 14 15 15 15 15 15 15 14 13 11 11 10 9 9 8 7 6 6 6 6
26 25 25 23 22 20 19 17 16 15 15 15 13 11 8 7 6 6 6 7 9 10 11 11 13 14 14 14 15 14 15 14 13 11 10 10 9 9 9 8 6 6 6 6
27 27 26 25 23 22 21 20 20 19 18 17 16 14 11 9 8 7 7 7 8 9 10 10 11 13 13 14 14 13 14 14 13 12 11 10 9 8 8 7 6 6 6 6
29 28 27 27 26 24 23 23 22 22 21 20 17 16 12 10 10 9 8 8 8 9 10 10 11 11 12 13 13 13 13 14 13 12 11 10 9 8 8 7 6 6 6 6
30 28 27 27 27 26 25 24 24 24 23 21 19 18 14 13 12 10 9 9 8 8 9 9 9 11 12 11 11 12 13 13 13 12 11 10 9 8 8 8 7 6 6 7
31 30 29 28 27 27 26 26 26 25 23 22 20 19 16 14 13 12 11 10 9 9 10 9 9 10 10 10 10 11 12 12 12 11 11 10 9 9 9 8 6 6 7 8
31 30 29 28 28 28 27 28 26 26 25 24 23 20 18 16 15 14 13 12 11 11 10 10 10 10 9 10 10 10 10 11 11 10 11 11 10 10 10 9 7 7 8 8
31 30 30 29 29 28 28 27 28 28 27 26 25 22 19 17 17 16 15 14 13 11 10 11 12 11 10 11 11 10 10 10 10 10 11 12 11 10 9 8 8 8 8 9
32 32 31 31 30 28 28 29 29 29 29 28 27 23 20 19 19 18 17 16 14 13 12 11 11 11 11 11 12 12 11 10 11 11 12 12 13 12 10 10 9 9 9 9
34 34 33 32 31 30 30 30 29 29 30 29 28 24 21 20 20 20 19 18 17 15 14 13 12 12 12 12 12 13 13 12 12 13 13 13 13 14 12 12 10 9 9 10
35 36 35 34 33 32 32 31 30 30 30 30 29 26 23 22 21 21 20 20 18 17 16 15 14 15 14 14 14 13 13 13 13 13 14 14 14 15 14 13 10 9 10 11
37 37 37 36 34 33 33 32 32 31 31 30 29 27 25 24 23 22 21 20 20 19 18 17 16 16 15 15 16 14 14 13 14 14 15 15 15 15 15 14 13 11 11 11
37 37 37 36 35 34 34 33 32 32 32 31 28 27 25 24 24 23 22 21 20 20 19 19 18 17 17 17 17 16 15 14 14 15 15 15 15 15 15 15 13 11 11 12
38 38 37 36 36 36 35 34 33 32 32 31 29 27 26 26 26 24 24 23 22 21 21 20 20 20 19 18 17 17 16 16 16 16 16 16 16 16 16 16 14 12 12 12
38 37 37 36 35 36 38 35 34 33 32 31 29 26 26 26 26 25 24 23 23 22 22 22 21 20 19 19 18 18 17 17 18 18 18 17 17 17 16 16 15 13 13 14
38 38 37 37 36 38 36 35 34 34 32 31 29 27 26 26 26 25 24 24 23 23 23 23 21 21 21 20 20 19 19 19 19 19 18 17 18 17 17 16 15 15 15 15
37 38 38 37 37 37 35 34 34 34 32 31 30 29 28 27 27 25 25 25 25 24 23 22 21 21 22 22 21 21 21 20 20 20 20 19 19 19 18 17 16 16 16 17
38 39 39 39 38 37 34 33 33 33 33 31 30 29 28 27 27 25 24 25 24 24 24 23 21 21 22 21 22 22 21 21 20 21 21 21 20 19 19 18 18 19 19 19
38 38 39 39 38 36 33 33 33 34 32 30 30 29 28 28 27 25 25 25 25 24 23 23 23 22 22 21 21 21 21 22 21 21 21 21 20 20 19 19 19 20 20 20
38 38 39 39 38 37 34 33 33 33 32 31 30 29 29 29 28 27 26 26 25 24 24 24 24 24 23 22 22 22 22 22 22 22 21 22 22 21 22 22 21 21 21 22
38 39 39 39 38 37 35 34 34 34 33 32 31 30 30 30 30 29 28 27 27 26 26 26 26 26 25 25 23 23 23 23 24 23 24 24 23 23 22 22 22 22 22 23
37 37 38 38 38 37 35 34 34 35 34 32 32 31 31 31 31 31 30 30 30 29 28 27 27 27 27 26 25 25 24 23 23 24 24 25 25 24 24 23 22 22 23 23
36 37 38 38 37 37 37 35 34 34 34 33 33 32 32 32 32 32 31 32 32 32 30 30 30 28 27 26 25 25 25 25 25 25 25 25 25 25 24 24 24 24 24 25
35 36 36 37 37 37 36 35 35 35 34 34 33 33 32 32 32 33 32 32 32 32 32 31 30 29 28 27 26 26 26 26 25 25 24 24 25 25 25 25 26 26 27 27
Wind_Direction
216 219 222 228 230 229 232 232 229 224 233 242 16 24 23 21 18 16 16 18 19 20 21 21 20 19 19 20 21 21 21 20 20 23 24 27 27 28 31 34 33 32 31 30
220 222 223 228 230 232 235 238 238 235 240 248 258 294 334 347 355 4 7 8 9 11 14 14 13 14 14 13 14 16 18 17 16 17 17 20 22 24 27 29 30 31 30 27
223 224 226 228 231 235 236 238 240 240 245 252 257 265 283 312 330 342 350 356 2 5 7 8 7 9 9 10 9 11 15 13 14 15 16 18 19 24 24 25 27 28 29 21
223 224 226 229 233 235 236 238 241 242 247 253 259 263 269 283 302 318 329 341 350 355 358 359 4 6 4 4 3 5 8 9 9 10 11 11 16 20 20 19 19 18 21 15
225 225 227 230 233 235 237 240 242 246 249 253 256 261 262 270 283 295 307 321 334 340 346 349 352 357 359 359 360 0 2 4 6 7 7 7 8 9 11 11 10 9 6 3
226 227 228 229 232 235 238 239 241 244 249 252 254 258 261 268 276 282 287 301 316 325 334 341 344 347 350 352 355 358 359 360 1 2 4 5 4 2 1 0 357 358 357 353
226 228 230 231 232 234 237 238 239 242 245 250 252 254 260 266 272 278 285 296 307 312 322 327 329 336 339 341 345 349 353 356 357 357 358 358 356 354 351 348 346 349 350 347
227 228 230 232 234 236 237 239 241 244 248 251 254 258 263 266 269 273 281 289 297 304 312 316 318 321 327 329 333 340 345 350 352 357 354 351 348 344 344 341 336 335 334 334
229 229 229 231 233 235 236 237 240 244 249 251 255 259 261 264 267 271 278 284 292 298 306 309 310 311 315 323 326 332 336 341 345 347 347 346 343 340 338 336 330 327 327 328
229 229 228 230 232 233 235 238 240 244 249 252 256 259 263 263 265 269 273 279 288 295 302 306 309 307 309 317 322 323 325 328 333 336 339 337 334 332 333 334 334 333 328 323
229 230 229 230 231 234 236 238 242 246 249 253 257 259 262 263 265 265 266 272 281 288 293 296 302 307 307 310 312 314 314 316 323 326 328 328 330 326 324 324 320 322 321 318
229 230 230 231 233 234 237 240 244 247 250 253 257 259 259 262 264 265 266 268 274 280 284 289 292 299 300 301 305 307 310 311 315 319 321 320 323 327 323 318 315 313 313 313
229 230 230 230 232 233 236 239 242 246 249 252 256 258 259 260 263 265 266 266 267 271 277 286 290 293 294 294 296 299 304 305 309 314 316 314 319 322 319 319 310 301 302 304
230 232 232 232 234 236 239 240 242 245 247 251 254 257 258 260 261 263 264 264 266 268 274 281 284 286 289 290 292 293 297 298 303 306 307 310 315 317 315 312 305 297 296 298
231 233 234 234 235 237 240 241 243 246 248 251 254 256 258 260 260 262 262 264 266 269 271 275 278 282 285 287 286 288 290 291 295 297 299 304 307 308 310 309 305 297 296 295
232 234 235 236 236 236 239 241 244 246 249 251 253 255 256 257 258 259 260 263 265 267 270 273 276 280 283 282 281 283 285 287 288 291 291 296 300 301 305 308 299 294 295 297
232 234 236 238 237 237 238 239 243 245 247 249 252 254 256 257 257 259 259 261 264 265 268 271 274 277 277 276 277 278 278 283 285 289 291 293 298 304 304 304 296 293 295 297
232 234 236 238 238 239 240 240 243 245 246 248 250 252 255 256 256 257 259 261 263 264 267 268 271 273 274 275 273 273 276 278 280 283 285 290 294 298 299 299 294 291 292 295
232 234 236 237 239 242 241 241 241 243 245 247 249 251 254 254 254 256 259 262 262 265 267 268 270 273 274 274 271 271 271 272 275 279 283 285 289 290 291 293 292 292 292 294
232 234 236 238 240 241 241 242 242 243 245 246 248 250 254 255 255 258 259 260 263 264 267 268 272 275 276 275 272 272 272 274 277 277 278 280 283 285 286 285 287 289 291 292
232 233 236 238 240 242 242 242 242 243 244 245 247 249 251 254 256 259 258 260 262 265 265 267 270 273 273 272 272 269 271 274 276 275 275 276 283 283 282 282 284 285 287 289
232 234 236 238 240 242 243 243 243 243 244 245 247 248 251 253 254 256 257 258 261 264 266 266 269 271 269 268 267 269 271 273 275 276 276 278 281 282 278 278 281 283 283 285
233 235 238 239 240 242 242 243 244 243 243 244 246 247 249 251 253 254 256 258 259 262 265 264 266 268 268 266 268 270 271 272 274 275 277 277 278 279 278 279 282 284 284 285
234 235 237 239 239 240 241 243 244 244 245 246 247 248 248 250 251 252 254 256 258 260 263 264 266 266 266 268 270 270 271 272 274 274 275 276 276 278 278 278 281 282 283 285
235 236 237 238 239 240 240 242 243 244 245 246 248 249 250 250 251 252 255 256 257 259 262 264 265 266 265 266 268 270 272 273 274 274 273 275 274 276 278 279 281 280 281 283
235 235 236 238 239 240 240 242 242 243 244 245 247 250 250 250 251 252 254 256 258 258 259 262 263 264 264 266 268 269 271 272 272 272 270 273 276 276 276 277 278 279 280 281
Height
5914 5917 5919 5921 5923 5925 5926 5927 5929 5930 5930 5931 5931 5932 5932 5932 5932 5931 5930 5928 5927 5925 5923 5921 5919 5917 5915 5914 5912 5909 5907 5905 5903 5901 5900 5898 5897 5896 5895 5893 5892 5891 5890 5890
5912 5915 5917 5918 5920 5922 5924 5926 5927 5929 5929 5930 5930 5931 5932 5932 5932 5931 5930 5929 5928 5926 5924 5922 5920 5918 5916 5914 5912 5910 5908 5906 5904 5902 5900 5899 5898 5896 5895 5895 5893 5892 5891 5890
5909 5912 5914 5916 5918 5920 5922 5924 5925 5927 5927 5928 5929 5930 5931 5932 5931 5931 5930 5929 5928 5926 5924 5922 5921 5919 5917 5915 5913 5911 5908 5906 5904 5902 5901 5899 5898 5897 5896 5895 5894 5893 5892 5891
5904 5908 5910 5913 5915 5917 5920 5921 5923 5924 5925 5926 5928 5928 5930 5930 5930 5930 5930 5929 5928 5926 5924 5923 5921 5919 5917 5915 5913 5911 5909 5907 5905 5903 5901 5900 5899 5898 5897 5896 5895 5894 5893 5892
5900 5904 5906 5909 5912 5914 5917 5918 5920 5921 5922 5924 5925 5926 5928 5928 5928 5929 5929 5928 5927 5926 5924 5923 5921 5919 5917 5915 5913 5911 5909 5907 5905 5903 5902 5901 5900 5898 5897 5896 5895 5894 5893 5892
5896 5899 5902 5905 5908 5911 5913 5915 5916 5917 5919 5921 5923 5924 5925 5926 5926 5927 5927 5927 5926 5925 5923 5922 5921 5919 5917 5915 5913 5911 5909 5907 5905 5904 5902 5901 5900 5899 5898 5897 5896 5895 5894 5892
5891 5894 5898 5901 5903 5906 5909 5911 5913 5914 5915 5917 5920 5920 5923 5923 5924 5925 5925 5924 5924 5923 5922 5921 5920 5918 5916 5915 5913 5911 5909 5907 5906 5904 5903 5901 5900 5899 5898 5897 5896 5895 5894 5892
5886 5890 5893 5896 5899 5902 5904 5907 5909 5911 5912 5915 5916 5917 5920 5921 5921 5922 5922 5922 5922 5921 5921 5919 5918 5917 5915 5914 5912 5911 5909 5907 5906 5904 5902 5901 5900 5899 5897 5896 5895 5894 5893 5892
5880 5885 5889 5891 5894 5897 5899 5901 5904 5906 5908 5910 5912 5914 5916 5917 5918 5919 5919 5920 5920 5919 5919 5917 5916 5914 5913 5912 5911 5910 5908 5907 5905 5903 5902 5901 5900 5898 5897 5895 5894 5893 5892 5891
5875 5879 5883 5886 5889 5891 5894 5897 5899 5901 5903 5905 5907 5910 5913 5914 5915 5916 5916 5917 5917 5917 5916 5915 5914 5912 5911 5910 5910 5908 5907 5906 5904 5903 5902 5900 5899 5897 5896 5894 5893 5892 5891 5890
5868 5873 5877 5880 5883 5886 5889 5892 5894 5896 5898 5900 5902 5907 5909 5910 5911 5912 5913 5914 5914 5914 5913 5913 5912 5911 5910 5909 5908 5906 5905 5904 5903 5901 5900 5899 5897 5896 5894 5893 5892 5891 5890 5889
5861 5865 5869 5874 5878 5881 5884 5886 5889 5891 5893 5895 5897 5903 5904 5905 5906 5907 5909 5910 5910 5910 5910 5909 5909 5908 5907 5906 5905 5904 5903 5902 5901 5900 5898 5897 5895 5894 5893 5891 5889 5889 5888 5887
5854 5858 5862 5866 5872 5874 5877 5880 5882 5885 5887 5889 5892 5898 5899 5900 5901 5903 5904 5905 5906 5906 5906 5906 5905 5905 5904 5903 5903 5902 5901 5900 5899 5897 5896 5894 5893 5892 5891 5889 5886 5886 5885 5885
5846 5850 5856 5861 5864 5868 5870 5874 5876 5879 5881 5883 5887 5890 5893 5895 5896 5898 5899 5900 5901 5902 5902 5902 5902 5901 5901 5900 5899 5899 5898 5897 5896 5895 5894 5892 5891 5890 5888 5887 5885 5884 5883 5882
5838 5843 5848 5853 5857 5861 5864 5867 5870 5873 5875 5878 5881 5884 5887 5889 5891 5892 5894 5895 5896 5897 5897 5897 5897 5897 5897 5896 5896 5895 5895 5894 5893 5892 5891 5890 5889 5887 5886 5884 5882 5881 5881 5880
5831 5835 5840 5845 5850 5853 5856 5860 5863 5866 5869 5872 5875 5878 5881 5882 5884 5886 5888 5889 5890 5891 5891 5892 5892 5892 5892 5891 5891 5891 5891 5890 5890 5889 5888 5887 5886 5885 5883 5881 5879 5878 5878 5877
5824 5828 5833 5837 5842 5844 5848 5853 5856 5859 5862 5866 5868 5873 5874 5876 5878 5880 5882 5883 5884 5885 5886 5886 5886 5886 5886 5887 5887 5887 5886 5886 5885 5885 5884 5883 5882 5881 5879 5878 5877 5876 5875 5874
5817 5821 5825 5829 5834 5836 5844 5846 5849 5852 5855 5859 5862 5865 5867 5869 5871 5873 5875 5876 5877 5878 5879 5880 5880 5881 5881 5881 5881 5881 5881 5881 5881 5881 5880 5879 5878 5877 5876 5874 5873 5872 5871 5870
5810 5814 5818 5821 5824 5829 5835 5838 5841 5845 5848 5852 5855 5858 5860 5862 5864 5866 5868 5870 5871 5872 5873 5873 5874 5874 5875 5875 5875 5875 5875 5876 5876 5876 5876 5875 5874 5872 5871 5870 5869 5868 5868 5867
5802 5806 5811 5814 5817 5821 5829 5832 5834 5839 5841 5845 5848 5851 5853 5855 5857 5860 5862 5863 5864 5865 5866 5867 5868 5868 5869 5869 5869 5870 5870 5870 5871 5871 5870 5870 5869 5868 5866 5865 5865 5864 5863 5862
5795 5798 5802 5806 5810 5815 5820 5823 5827 5831 5836 5839 5841 5843 5846 5848 5851 5854 5855 5856 5857 5859 5860 5861 5861 5862 5863 5863 5864 5864 5864 5865 5865 5865 5864 5864 5863 5862 5862 5861 5860 5859 5858 5857
5788 5792 5796 5799 5803 5809 5813 5816 5820 5824 5828 5831 5834 5836 5839 5842 5844 5846 5847 5849 5851 5852 5853 5854 5854 5855 5857 5857 5858 5858 5859 5859 5859 5858 5858 5858 5857 5856 5856 5855 5854 5853 5853 5852
5780 5785 5789 5793 5799 5802 5805 5809 5812 5816 5820 5823 5826 5829 5832 5834 5836 5838 5840 5842 5844 5845 5846 5847 5848 5848 5849 5850 5851 5852 5852 5852 5852 5852 5852 5851 5851 5850 5849 5849 5848 5847 5847 5846
5772 5776 5781 5785 5789 5793 5797 5801 5804 5808 5812 5815 5819 5821 5824 5826 5829 5831 5833 5835 5837 5838 5839 5840 5841 5842 5842 5843 5844 5845 5845 5845 5845 5845 5845 5845 5845 5844 5843 5842 5841 5841 5840 5840
5765 5768 5772 5777 5781 5785 5789 5793 5796 5800 5803 5807 5810 5813 5816 5818 5821 5823 5824 5826 5828 5830 5831 5833 5834 5835 5835 5836 5837 5837 5838 5838 5838 5838 5838 5838 5837 5837 5836 5835 5835 5834 5834 5833
5757 5761 5765 5769 5773 5777 5781 5785 5788 5792 5795 5799 5802 5805 5807 5810 5812 5814 5816 5817 5819 5821 5823 5825 5826 5827 5827 5828 5829 5829 5830 5830 5830 5830 5830 5830 5830 5829 5828 5828 5827 5827 5826 5826